Patterson, LA

3:30 AM CST on November 12, 2019 (GMT -0600)
Williams Memorial

Weather History for KPTN - October, 2019

Change the Weather History Date:

Monday, October 21, 2019

  Actual Average Record
Temperature  
Mean Temperature 73 °F -  
Max Temperature 77 °F 76 °F 87 °F (2010)
Min Temperature 69 °F 57 °F 42 °F (2011)
Cooling Degree Days 8    
Growing Degree Days 23 (Base 50)    
Moisture  
Dew Point 72 °F    
Average Humidity 96    
Maximum Humidity 100    
Minimum Humidity 90    
Precipitation  
Precipitation 1.16 in - - ()
Sea Level Pressure  
Sea Level Pressure 29.86 in    
Wind  
Wind Speed 9 mph (SSW)    
Max Wind Speed 20 mph    
Max Gust Speed 30 mph    
Visibility 10 miles    
Events Rain , Thunderstorm    
Averages and records for this station are not official NWS values.
T = Trace of Precipitation, MM = Missing Value Source: NWS Daily Summary

Daily Weather History Graph

Daily Weather History Graph

Search for Another Location

Airport or City:

Astronomy

Oct. 21, 2019 Rise Set
Actual Time 7:10 AM CDT 6:28 PM CDT
Civil Twilight 6:46 AM CDT 6:52 PM CDT
Nautical Twilight 6:18 AM CDT 7:20 PM CDT
Astronomical Twilight 5:51 AM CDT 7:48 PM CDT
Moon No Moon Rise 2:14 PM CDT (10/21)
Length of Visible Light 12h 06m
Length of Day
11h 17m
Waning Gibbous, 48% of the Moon is Illuminated
Oct 21
Waning Gibbous
Oct 27
New
Nov 4
First Quarter
Nov 12
Full
Nov 19
Last Quarter

Hourly Weather History & Observations

Time (CDT) Temp. Dew Point Humidity Pressure Visibility Wind Dir Wind Speed Gust Speed Precip Events Conditions
12:56 AM 75.0 °F 73.9 °F 96% 29.86 in 10.0 mi SSE 8.1 mph - N/A   Clear
1:56 AM 75.9 °F 73.9 °F 94% 29.83 in 10.0 mi SSE 11.5 mph - N/A   Scattered Clouds
2:56 AM 75.9 °F 73.9 °F 94% 29.81 in 10.0 mi South 10.4 mph - N/A   Clear
3:56 AM 77.0 °F 73.9 °F 90% 29.80 in 10.0 mi South 10.4 mph - N/A   Scattered Clouds
4:56 AM 77.0 °F 73.9 °F 90% 29.80 in 10.0 mi South 9.2 mph - N/A   Partly Cloudy
5:56 AM 77.0 °F 73.9 °F 90% 29.83 in 10.0 mi South 8.1 mph - N/A   Partly Cloudy
6:56 AM 75.9 °F 73.9 °F 94% 29.86 in 10.0 mi South 8.1 mph - N/A   Overcast
7:56 AM 75.9 °F 73.9 °F 94% 29.85 in 10.0 mi South 6.9 mph - 0.02 in   Overcast
8:56 AM 75.9 °F 73.9 °F 94% 29.86 in 10.0 mi South 8.1 mph - 0.03 in Rain Light Rain
9:56 AM 75.9 °F 75.0 °F 97% 29.83 in 10.0 mi SSE 5.8 mph - 0.05 in Rain Light Rain
10:15 AM 75.2 °F 75.2 °F 100% 29.83 in 10.0 mi SSE 6.9 mph - 0.02 in Rain , Thunderstorm Light Rain
10:30 AM 75.2 °F 75.2 °F 100% 29.84 in 10.0 mi South 8.1 mph - 0.03 in Rain Light Rain
10:56 AM 75.9 °F 75.0 °F 97% 29.83 in 5.0 mi SSE 13.8 mph - 0.10 in Rain , Thunderstorm Light Thunderstorms and Rain
11:13 AM 73.4 °F 71.6 °F 94% 29.87 in 10.0 mi SSW 19.6 mph 29.9 mph 0.03 in Rain Light Rain
11:22 AM 73.4 °F 71.6 °F 94% 29.88 in 8.0 mi SSW 12.7 mph - 0.08 in Rain , Thunderstorm Light Rain
11:56 AM 72.0 °F 71.1 °F 97% 29.87 in 9.0 mi SSW 12.7 mph 19.6 mph 0.29 in Rain , Thunderstorm Light Thunderstorms and Rain
12:04 PM 71.6 °F 71.6 °F 100% 29.86 in 10.0 mi SSW 12.7 mph - 0.03 in Rain Light Rain
12:56 PM 73.0 °F 72.0 °F 96% 29.85 in 10.0 mi WSW 4.6 mph - 0.16 in Rain Light Rain
2:05 PM 73.4 °F 71.6 °F 94% 29.86 in 6.0 mi SW 9.2 mph - 0.05 in Rain Light Rain
2:33 PM 71.6 °F 71.6 °F 100% 29.85 in 6.0 mi SW 8.1 mph - 0.26 in Rain Light Rain
2:47 PM 73.4 °F 71.6 °F 94% 29.84 in 10.0 mi SSW 8.1 mph - 0.32 in Rain Light Rain
2:56 PM 73.0 °F 72.0 °F 96% 29.84 in 10.0 mi SW 8.1 mph - 0.33 in Rain Light Rain
3:15 PM 73.4 °F 71.6 °F 94% 29.83 in 10.0 mi SSW 5.8 mph - 0.01 in Rain Light Rain
3:52 PM 73.4 °F 73.4 °F 100% 29.83 in 10.0 mi South 9.2 mph - 0.05 in Rain Light Rain
3:56 PM 73.9 °F 73.0 °F 97% 29.84 in 10.0 mi SSW 10.4 mph - 0.05 in Rain Light Rain
4:36 PM 73.4 °F 73.4 °F 100% 29.81 in 10.0 mi SSW 10.4 mph - 0.01 in Rain Light Rain
4:56 PM 73.0 °F 73.0 °F 100% 29.83 in 10.0 mi SSW 6.9 mph - 0.03 in Rain Light Rain
5:40 PM 73.4 °F 73.4 °F 100% 29.80 in 10.0 mi South 12.7 mph - 0.05 in Rain , Thunderstorm Light Thunderstorms and Rain
5:56 PM 73.0 °F 72.0 °F 96% 29.78 in 10.0 mi SSE 11.5 mph - 0.08 in Rain Light Rain
6:33 PM 73.4 °F 71.6 °F 94% 29.84 in 10.0 mi WSW 9.2 mph - 0.02 in   Mostly Cloudy
6:47 PM 73.4 °F 71.6 °F 94% 29.86 in 10.0 mi WSW 8.1 mph - 0.02 in   Overcast
6:56 PM 73.0 °F 71.1 °F 93% 29.86 in 10.0 mi NW 5.8 mph - 0.02 in   Mostly Cloudy
7:10 PM 73.4 °F 71.6 °F 94% 29.87 in 10.0 mi West 11.5 mph - N/A   Scattered Clouds
7:56 PM 72.0 °F 71.1 °F 97% 29.88 in 10.0 mi West 6.9 mph - N/A   Clear
8:51 PM 71.6 °F 71.6 °F 100% 29.91 in 10.0 mi West 6.9 mph - N/A   Scattered Clouds
8:56 PM 72.0 °F 71.1 °F 97% 29.92 in 10.0 mi WNW 6.9 mph - N/A   Scattered Clouds
9:20 PM 71.6 °F 71.6 °F 100% 29.93 in 10.0 mi West 3.5 mph - N/A   Overcast
9:56 PM 71.1 °F 70.0 °F 96% 29.94 in 10.0 mi NW 6.9 mph - N/A   Overcast
10:08 PM 71.6 °F 69.8 °F 94% 29.94 in 10.0 mi NW 8.1 mph - N/A   Overcast
10:56 PM 70.0 °F 69.1 °F 97% 29.96 in 10.0 mi NW 8.1 mph - N/A   Overcast
11:33 PM 69.8 °F 69.8 °F 100% 29.96 in 10.0 mi NNW 8.1 mph - N/A   Overcast
11:56 PM 69.1 °F 66.9 °F 93% 29.96 in 10.0 mi NNW 6.9 mph - N/A   Overcast